Flag for India Weather past 2 weeks in Panipat, Haryana, India

Now
77 °F

Fog.


Feels Like: 78 °F
Forecast: 82 / 95 °F
Wind: 6 mph from South

Location: New Delhi Palam Airport

Current Time: Jul 29, 2015 at 7:00:23 AM

Latest Report: Jul 29, 2015 at 6:00 AM


Visibility: 2 mi

Pressure: 29.53 "Hg

Humidity: 89%

Dew point: 73 °F

Location of PanipatLocation

Historic Weather in Panipat — Graph

°F

Panipat temperature yesterday

Maximum temperature yesterday: 91 °F (at 4:00 PM)
Minimum temperature yesterday: 79 °F (at 3:00 AM)
Average temperature yesterday: 84 °F

Past Weeks' High & Low Weather Summary

 TemperatureHumidityPressure
High99 °F (Jul 15, 1:30 PM)100% (Jul 15, 7:30 AM)29.68 "Hg (Jul 15, 7:30 AM)
Low77 °F (Jul 20, 10:30 AM)44% (Jul 15, 1:30 PM)29.36 "Hg (Jul 16, 2:30 AM)
Average87 °F74%29.54 "Hg
* Reported Jul 14 5:30 AM — Jul 29 5:30 AM, Panipat, Weather by CustomWeather, © 2015

Note: Actual official high and low records may vary slightly from our data, if they occured in-between our weather recording intervals... More about our weather records

Advertising

Panipat weather history for previous 24 hours

 ConditionsComfort  
Time TempWeatherWind HumidityBarometerVisibility
5:30 AM
Wed, Jul 29
77 °FFog.8 mph89%29.53 "Hg2 mi
5:00 AM79 °FFog.7 mph79%29.53 "Hg2 mi
4:30 AM79 °FFog.7 mph79%29.53 "Hg2 mi
4:00 AM79 °FFog.6 mph79%29.53 "Hg2 mi
3:30 AM79 °FFog.8 mph79%29.56 "Hg2 mi
3:00 AM79 °FFog.7 mph79%29.56 "Hg2 mi
2:30 AM79 °FFog.8 mph79%29.56 "Hg2 mi
2:00 AM79 °FFog.8 mph79%29.59 "Hg2 mi
1:30 AM79 °FPassing clouds.9 mph74%29.59 "Hg2 mi
1:00 AM79 °FPassing clouds.9 mph74%29.59 "Hg2 mi
12:30 AM81 °FPassing clouds.8 mph70%29.59 "Hg2 mi
11:30 PM
Tue, Jul 28
82 °FPassing clouds.8 mph66%29.59 "Hg2 mi
11:00 PM82 °FPassing clouds.9 mph66%29.59 "Hg2 mi
10:00 PM84 °FPassing clouds.9 mph62%29.59 "Hg2 mi
9:30 PM86 °FPassing clouds.7 mph55%29.56 "Hg2 mi
9:00 PM86 °FPassing clouds.8 mph55%29.56 "Hg2 mi
8:30 PM86 °FPassing clouds.7 mph55%29.56 "Hg2 mi
8:00 PM86 °FPassing clouds.7 mph55%29.56 "Hg2 mi
7:30 PM88 °FScattered clouds.8 mph55%29.56 "Hg2 mi
7:00 PM90 °FScattered clouds.8 mph52%29.56 "Hg2 mi
6:30 PM90 °FScattered clouds.9 mph52%29.53 "Hg2 mi
6:00 PM90 °FScattered clouds.10 mph55%29.53 "Hg2 mi
5:30 PM90 °FScattered clouds.12 mph55%29.53 "Hg2 mi
5:00 PM90 °FScattered clouds.12 mph59%29.53 "Hg2 mi
4:30 PM90 °FScattered clouds.13 mph59%29.53 "Hg2 mi
4:00 PM91 °FScattered clouds.13 mph59%29.53 "Hg2 mi
3:30 PM90 °FScattered clouds.13 mph59%29.56 "Hg2 mi
2:30 PM88 °FBroken clouds.12 mph62%29.56 "Hg2 mi
2:00 PM88 °FBroken clouds.12 mph62%29.59 "Hg2 mi
1:30 PM88 °FBroken clouds.7 mph62%29.59 "Hg3 mi
1:00 PM88 °FBroken clouds.8 mph62%29.59 "Hg3 mi
12:30 PM88 °FBroken clouds.8 mph62%29.59 "Hg3 mi
12:00 PM86 °FBroken clouds.7 mph66%29.59 "Hg3 mi
11:30 AM86 °FBroken clouds.9 mph66%29.62 "Hg3 mi
11:00 AM86 °FBroken clouds.9 mph66%29.62 "Hg3 mi
10:30 AM84 °FBroken clouds.9 mph70%29.62 "Hg2 mi
10:00 AM84 °FBroken clouds.9 mph70%29.62 "Hg2 mi
9:30 AM82 °FBroken clouds.9 mph74%29.62 "Hg2 mi
9:00 AM82 °FFog.9 mph79%29.62 "Hg2 mi
8:30 AM81 °FFog.9 mph84%29.62 "Hg2 mi
8:00 AM81 °FFog.9 mph84%29.62 "Hg2 mi
7:00 AM81 °FFog.8 mph79%29.59 "Hg2 mi
Weather by CustomWeather, © 2015

See weather overviewHow to use our weather pages